Location: ????????
(55.0559°N, 39.1270°E)
Time: 08:33:07
(UTC+00:00)

Cosmos 2228 - Pass Details

Date: 15 November 2025
Orbit: 565 x 588 km, 82.5° (Epoch: 14 December)

Event Time Altitude Azimuth Distance (km) Brightness Sun altitude
Rises 03:56:15 0° 348° (NNW) 2,830 6.1 -8.5°
Reaches altitude 10° 03:58:27 10° 350° (N) 1,927 5.3 -8.2°
Maximum altitude 04:02:43 78° 78° (ENE) 609 3.2 -7.6°
Drops below altitude 10° 04:06:58 10° 165° (SSE) 1,917 6.2 -7.0°
Sets 04:09:09 0° 166° (SSE) 2,813 7.0 -6.8°
